This demonstration page uses our WeatherBlox Daily Observations layout. Learn more.

Left ArrowRight Arrow

39.51506, -84.39828

Hourly Observations for March 6, 2020

Temp ( °F °C ) Dew Point ( °F °C ) Humidity (%) Winds ( mph kmh ) Pressure ( in mb ) Visibility ( mi km ) Precip ( " mm )
12:15 am 00:15 Clear 43 6.3 28 -2.1 55 55 WNW 8 13 29.98 1015 10 16.0934 0 0
12:35 am 00:35 Clear 42 5.6 28 -2.4 57 57 WNW 6 9 29.98 1015 10 16.0934 0 0
12:55 am 00:55 Clear 42 5.3 28 -2.4 58 58 SW 7 11 29.98 1015 10 16.0934 0 0
1:15 am 01:15 Clear 41 5.1 29 -1.4 63 63 WSW 5 7 29.99 1016 10 16.0934 0 0
1:35 am 01:35 Cloudy 38 3.5 29 -1.6 70 70 W 6 9 30 1016 10 16.0934 0 0
1:55 am 01:55 Cloudy 40 4.6 29 -1.9 63 63 W 8 13 29.99 1016 10 16.0934 0 0
2:15 am 02:15 Cloudy 41 5.1 28 -2 60 60 W 10 17 29.99 1016 10 16.0934 0 0
2:35 am 02:35 Cloudy 41 5.2 28 -2.1 60 60 W 12 19 29.99 1016 10 16.0934 0 0
2:55 am 02:55 Cloudy 41 5.2 28 -2.1 60 60 W 13 20 29.99 1016 10 16.0934 0 0
3:15 am 03:15 Cloudy 41 5.2 29 -1.7 61 61 WNW 12 19 29.99 1016 10 16.0934 0 0
3:35 am 03:35 Cloudy with Light Rain 41 4.9 29 -1.5 64 64 W 9 15 29.99 1016 10 16.0934 0 0
3:55 am 03:55 Cloudy 40 4.4 29 -1.9 64 64 W 14 22 29.99 1016 10 16.0934 0 0
4:15 am 04:15 Cloudy 39 4.1 29 -1.5 67 67 W 12 19 30 1016 10 16.0934 0 0
4:35 am 04:35 Cloudy 39 4 30 -1.3 69 69 W 12 19 30 1016 10 16.0934 0 0
4:55 am 04:55 Cloudy with Drizzle 38 3.6 31 -0.8 73 73 W 12 19 30.01 1016 10 16.0934 0 0
5:15 am 05:15 Cloudy with Drizzle 38 3.1 32 -0.1 80 80 W 15 24 30.02 1016 10 16.0934 0 0
5:35 am 05:35 Cloudy with Light Rain 37 2.5 32 0.2 85 85 W 13 20 30.04 1017 10 16.0934 0 0
5:55 am 05:55 Cloudy with Light Rain 36 2.3 32 -0.2 84 84 W 13 20 30.04 1017 10 16.0934 0 0
6:15 am 06:15 Cloudy with Light Rain 36 2.3 32 -0.2 84 84 W 10 17 30.05 1018 10 16.0934 0 0
6:35 am 06:35 Cloudy with Drizzle 36 2.2 32 -0.1 85 85 W 10 17 30.05 1018 10 16.0934 0 0
6:55 am 06:55 Cloudy with Light Rain 36 2.1 32 0.1 87 87 W 12 19 30.06 1018 10 16.0934 0 0
7:15 am 07:15 Cloudy with Light Rain 36 2.1 33 0.3 88 88 W 10 17 30.06 1018 10 16.0934 0 0
7:35 am 07:35 Cloudy with Drizzle 36 2.2 33 0.3 87 87 W 14 22 30.07 1018 10 16.0934 0 0
7:55 am 07:55 Cloudy with Light Rain 36 2.1 33 0.4 89 89 W 10 17 30.08 1019 10 16.0934 0 0
8:15 am 08:15 Cloudy with Drizzle 36 2.1 33 0.4 89 89 W 9 15 30.09 1019 10 16.0934 0 0
8:35 am 08:35 Cloudy with Light Rain 36 2.1 33 0.4 89 89 W 10 17 30.1 1019 10 16.0934 0 0
8:55 am 08:55 Cloudy with Light Rain 36 2.2 33 0.4 88 88 WNW 12 19 30.11 1020 10 16.0934 0 0
9:15 am 09:15 Cloudy with Light Rain 36 2.2 33 0.6 89 89 WNW 13 20 30.12 1020 7 11.26538 0 0
9:35 am 09:35 Cloudy with Light Rain 36 2.4 33 0.6 88 88 WNW 12 19 30.13 1020 10 16.0934 0 0
9:55 am 09:55 Cloudy with Light Rain 37 2.6 32 0.2 84 84 WNW 17 28 30.14 1021 10 16.0934 0 0
10:15 am 10:15 Cloudy with Light Rain 37 2.6 32 -0.2 82 82 NW 20 31 30.15 1021 10 16.0934 0 0
10:35 am 10:35 Cloudy with Light Rain 37 2.5 31 -0.8 79 79 NW 23 37 30.17 1022 10 16.0934 0 0
10:55 am 10:55 Cloudy with Light Rain 37 2.6 31 -0.3 81 81 WNW 18 30 30.17 1022 10 16.0934 0 0
11:15 am 11:15 Cloudy with Light Rain 37 2.6 31 -0.5 80 80 WNW 15 24 30.18 1022 10 16.0934 0 0
11:35 am 11:35 Cloudy 37 2.8 31 -0.8 77 77 WNW 18 30 30.19 1022 10 16.0934 0 0
11:55 am 11:55 Cloudy 38 3.4 30 -1 73 73 WNW 23 37 30.2 1023 10 16.0934 0 0
12:15 pm 12:15 Cloudy 37 2.9 29 -1.5 73 73 NW 16 26 30.21 1023 10 16.0934 0 0
12:35 pm 12:35 Cloudy 37 3 29 -1.4 73 73 WNW 22 35 30.22 1023 10 16.0934 0 0
12:55 pm 12:55 Cloudy 37 2.8 29 -1.6 73 73 WNW 21 33 30.23 1024 10 16.0934 0 0
1:15 pm 13:15 Cloudy with Light Rain 37 3 30 -1.2 74 74 WNW 20 31 30.23 1024 10 16.0934 0 0
1:35 pm 13:35 Cloudy with Light Rain 37 2.8 30 -1.1 76 76 WNW 18 30 30.23 1024 10 16.0934 0 0
1:55 pm 13:55 Cloudy with Light Rain 38 3.1 31 -0.7 76 76 NW 17 28 30.24 1024 10 16.0934 0 0
2:15 pm 14:15 Cloudy with Light Rain 38 3.2 31 -0.3 78 78 WNW 13 20 30.24 1024 10 16.0934 0 0
2:35 pm 14:35 Cloudy 38 3.3 31 -0.4 77 77 WNW 17 28 30.25 1024 10 16.0934 0 0
2:55 pm 14:55 Cloudy 39 3.8 31 -0.4 74 74 WNW 20 31 30.26 1025 10 16.0934 0 0
3:15 pm 15:15 Cloudy 39 3.7 31 -0.4 75 75 WNW 16 26 30.27 1025 10 16.0934 0 0
3:35 pm 15:35 Cloudy 38 3.6 32 -0.2 76 76 WNW 15 24 30.28 1025 10 16.0934 0 0
3:55 pm 15:55 Cloudy 39 3.8 32 -0.1 76 76 NW 18 30 30.29 1026 10 16.0934 0 0
4:15 pm 16:15 Cloudy 39 3.8 31 -0.4 74 74 WNW 20 31 30.3 1026 10 16.0934 0 0
4:35 pm 16:35 Cloudy 38 3.4 31 -0.3 77 77 NW 20 31 30.31 1026 10 16.0934 0 0
4:55 pm 16:55 Cloudy 38 3.2 32 -0.2 79 79 NW 16 26 30.32 1027 10 16.0934 0 0
5:15 pm 17:15 Cloudy with Drizzle 37 3 32 -0.1 80 80 NW 13 20 30.33 1027 10 16.0934 0 0
5:35 pm 17:35 Cloudy 38 3.2 31 -0.7 76 76 NW 12 19 30.34 1027 10 16.0934 0 0
5:55 pm 17:55 Cloudy 38 3.1 31 -0.8 76 76 NNW 15 24 30.35 1028 10 16.0934 0 0
6:15 pm 18:15 Cloudy 38 3.2 30 -1 74 74 NW 13 20 30.36 1028 10 16.0934 0 0
6:35 pm 18:35 Cloudy 37 3 29 -1.5 73 73 NNW 9 15 30.37 1028 10 16.0934 0 0
6:55 pm 18:55 Cloudy 37 2.9 29 -1.6 73 73 NNW 12 19 30.39 1029 10 16.0934 0 0
7:15 pm 19:15 Cloudy 37 2.7 29 -1.8 73 73 NW 14 22 30.4 1029 10 16.0934 0 0
7:35 pm 19:35 Cloudy 37 2.6 28 -2.2 71 71 NNW 14 22 30.41 1030 10 16.0934 0 0
7:55 pm 19:55 Cloudy 37 2.7 27 -2.7 68 68 NNW 8 13 30.42 1030 10 16.0934 0 0
8:15 pm 20:15 Cloudy 37 2.6 27 -2.9 67 67 NW 12 19 30.42 1030 10 16.0934 0 0
8:35 pm 20:35 Cloudy 37 2.5 26 -3.1 67 67 NNW 10 17 30.43 1030 10 16.0934 0 0
8:55 pm 20:55 Cloudy 36 2.4 27 -2.9 68 68 NW 8 13 30.44 1031 10 16.0934 0 0
9:15 pm 21:15 Cloudy 36 2.3 28 -2.5 71 71 NW 9 15 30.45 1031 10 16.0934 0 0
9:35 pm 21:35 Cloudy 36 2.2 27 -2.9 69 69 NNW 12 19 30.45 1031 10 16.0934 0 0
9:55 pm 21:55 Cloudy 36 2.1 27 -2.6 71 71 NW 7 11 30.46 1031 10 16.0934 0 0
10:15 pm 22:15 Cloudy 35 1.9 28 -2.5 73 73 NNW 8 13 30.46 1032 10 16.0934 0 0
10:35 pm 22:35 Cloudy 35 1.8 28 -2.5 73 73 NNW 13 20 30.47 1032 10 16.0934 0 0
10:55 pm 22:55 Cloudy 35 1.8 27 -2.7 72 72 NNW 8 13 30.47 1032 10 16.0934 0 0
11:15 pm 23:15 Cloudy 35 1.8 27 -3 71 71 N 10 17 30.47 1032 10 16.0934 0 0
11:35 pm 23:35 Cloudy 35 1.6 24 -4.5 64 64 N 6 9 30.48 1032 10 16.0934 0 0
11:55 pm 23:55 Cloudy 35 1.5 23 -4.8 63 63 N 10 17 30.48 1032 10 16.0934 0 0

Powered by AerisWeather